Regional Weather Roundup
Issued by NWS

Home | Current Version | Previous Version | Graphics & Text | Print | Product List | Glossary On
Versions: 1 2 3 4 5 6 7 8 9 10 11 12 13 14 15 16 17 18 19 20 21 22 23 24 25 26 27 28 29 30 31 32 33 34 35 36 37 38 39 40 41 42 43 44 45 46 47 48 49 50
000
ASUS43 KFSD 240510
RWRSD

WEATHER ROUNDUP FOR SOUTH DAKOTA
NATIONAL WEATHER SERVICE SIOUX FALLS SD
1100 PM CST TUE JAN 23 2018

NOTE: "FAIR" INDICATES FEW OR NO CLOUDS BELOW 12,000 FEET WITH NO
SIGNIFICANT WEATHER AND/OR OBSTRUCTIONS TO VISIBILITY.


SDZ001>005-009-010-012>017-240600-
NORTHWEST AND NORTH CENTRAL SOUTH DAKOTA

CITY           SKY/WX    TMP DP  RH WIND       PRES   REMARKS
BUFFALO          N/A     24  16  71 W6        30.05F WCI  17
FAITH            N/A     28  21  75 W8        30.15S WCI  20
MOBRIDGE       CLEAR     19  15  84 CALM      30.13R
$$

SDZ012>016-024>037-041>051-057-063-072>074-240600-
SOUTHWEST AND SOUTH CENTRAL SOUTH DAKOTA

CITY           SKY/WX    TMP DP  RH WIND       PRES   REMARKS
RAPID CTY ARPT CLEAR     21  13  71 W3        30.17F
PIERRE         CLEAR     26  22  84 W8        30.18R WCI  18
CUSTER         PTCLDY    16  10  77 CALM      30.11F
ELLSWORTH AFB  CLEAR     25  15  64 SW7       30.16F WCI  17
PHILIP         CLEAR     25  21  85 W9        30.20S WCI  15
PINE RIDGE     CLEAR     14   9  80 SW6       30.22F WCI   5
SPEARFISH        N/A     27  14  59 CALM      30.12F
WINNER         FAIR      26  19  74 W9        30.20S WCI  17
$$

SDZ004>011-016>023-039-040-240600-
NORTHEAST SOUTH DAKOTA

CITY           SKY/WX    TMP DP  RH WIND       PRES   REMARKS
ABERDEEN       CLEAR     18  17  96 N5        30.19R WCI  11
WATERTOWN      CLEAR     14  12  92 W5        30.14R WCI   6
BROOKINGS      FOG       21  19  92 W3        30.16F VSB 1/4
SISSETON         N/A     23  20  88 N15       30.17R WCI  10
$$

SDZ017-020-022-023-036>040-048>070-240600-
SOUTHEAST SOUTH DAKOTA

CITY           SKY/WX    TMP DP  RH WIND       PRES   REMARKS
SIOUX FALLS    CLOUDY    23  23 100 NW3       30.18S FOG
HURON          CLEAR     15  12  88 NW5       30.18S WCI   8
CHAMBERLAIN    CLEAR     25  24  96 SW5       30.19S WCI  19
MITCHELL       CLEAR     24  22  91 W5        30.20R WCI  18
YANKTON        PTCLDY    18  16  92 NW3       30.20R
$$

ABBREVIATIONS USED IN REMARKS
   TC - TEMPERATURE IN CELSIUS
  WCI - WIND CHILL INDEX
   HX - HEAT INDEX
  VSB - VISIBILITY




USA.gov is the U.S. government's official web portal to all federal, state and local government web resources and services.